User: anonymous   Login
Location: Newark
(55.7083°N, 13.1992°E)
Time: 21:24:02
(UTC+00:00)
Language:

Tiros 1 despin weight - Orbit

View from above orbital plane
View from above orbital plane
View from above satellite
View from above satellite

Ground track
Ground track

The orbit data is extracted from the following two-line orbital elements,

1   115U 60002D   20058.12887006 -.00000076  00000-0  18137-4 0  9990
2   115  48.1664  89.5312 0033939 119.3062 241.1248 14.83539886196446
Epoch (UTC): 27 February 2020 03:05:34
Eccentricity: 0.0033939
inclination: 48.1664°
perigee height: 594 km
apogee height: 642 km
right ascension of ascending node: 89.5312°
argument of perigee: 119.3062°
revolutions per day: 14.83539886
mean anomaly at epoch: 241.1248°
orbit number at epoch: 19644

The dashed part of the orbit path shows where the satellite is in the earth's shadow,  

DLR